Location: Esp�n
(42.4593°N, 0.2047°W)
Time: 15:07:35
(UTC+00:00)

Cosmos 1606 - Pass Details

Date: 07 June 2020
Orbit: 504 x 527 km, 82.5° (Epoch: 10 July)

Event Time Altitude Azimuth Distance (km) Brightness Sun altitude
Rises 02:49:50 0° 359° (N) 2,616 7.1 -13.9°
Reaches altitude 10° 02:52:04 10° 7° (N) 1,728 6.2 -13.6°
Maximum altitude 02:55:38 40° 78° (ENE) 767 4.0 -13.2°
Drops below altitude 10° 02:59:12 10° 149° (SSE) 1,722 5.2 -12.7°
Sets 03:01:25 0° 157° (SSE) 2,607 6.0 -12.5°
